GW0139 Weather Reports


time (UTC)temp
C
wind
direction
speed
KPH
gust
KPH
rain 1hr
cm
rain 24hr
cm
rain mn
cm
humidity
%
barometer
mb
20260502163241 19 11 12.9 14.5 0.00 0.00 0.00 65 1018.5
20260502162737 20 349 11.3 12.9 0.00 0.00 0.00 68 1018.4
20260502162229 19 4 11.3 16.1 0.00 0.00 0.00 69 1018.4
20260502161726 19 331 4.8 4.8 0.00 0.00 0.00 71 1018.4
20260502161222 19 326 4.8 8.0 0.00 0.00 0.00 70 1018.3
20260502160721 18 16 9.7 12.9 0.00 0.00 0.00 71 1018.3
20260502160219 18 14 12.9 16.1 0.00 0.00 0.00 72 1018.3
20260502152143 18 40 3.2 4.8 0.00 0.00 0.00 77 1018.0
20260502151641 18 24 8.0 9.7 0.00 0.00 0.00 77 1018.0
20260502151138 18 33 9.7 12.9 0.00 0.00 0.00 77 1018.0
20260502150635 18 15 9.7 11.3 0.00 0.00 0.00 77 1018.2
20260502150131 18 40 6.4 8.0 0.00 0.00 0.00 81 1018.1
20260502130520 14 17 4.8 8.0 0.00 0.00 0.00 92 1017.0
20260502123503 13 49 8.0 9.7 0.00 0.00 0.00 93 1016.6
20260502123000 13 46 1.6 3.2 0.00 0.00 0.00 93 1016.5
20260502122456 13 8 9.7 12.9 0.00 0.00 0.00 93 1016.3
20260502121954 13 27 9.7 12.9 0.00 0.00 0.00 93 1016.2
20260502121451 12 0 9.7 11.3 0.00 0.00 0.00 94 1016.3
20260502120948 12 17 6.4 9.7 0.00 0.00 0.00 94 1016.1
20260502120444 12 34 4.8 4.8 0.00 0.00 0.00 94 1016.1
20260502115439 12 35 8.0 11.3 0.00 0.00 0.00 94 1015.9
20260502114935 12 23 3.2 3.2 0.00 0.00 0.00 94 1015.9
20260502114432 12 356 6.4 9.7 0.00 0.00 0.00 94 1015.7
20260502113929 12 31 11.3 12.9 0.00 0.00 0.00 94 1015.7
20260502113426 12 52 3.2 4.8 0.00 0.00 0.00 94 1015.4
20260502112925 12 30 4.8 4.8 0.00 0.00 0.00 94 1015.7
20260502112422 12 25 4.8 4.8 0.00 0.00 0.00 93 1015.5
20260502111920 12 10 8.0 9.7 0.00 0.00 0.00 93 1015.4
20260502111416 13 37 8.0 9.7 0.00 0.00 0.00 92 1015.3
20260502110914 13 18 6.4 9.7 0.00 0.00 0.00 91 1015.1
20260502110412 13 357 6.4 8.0 0.00 0.00 0.00 90 1015.1
20260502105909 13 106 1.6 3.2 0.00 0.00 0.00 90 1015.1
20260502105406 13 337 8.0 12.9 0.00 0.00 0.00 91 1014.9
20260502104904 13 95 1.6 1.6 0.00 0.00 0.00 91 1014.9
20260502104401 13 34 8.0 9.7 0.00 0.00 0.00 91 1015.0
20260502103858 13 50 1.6 1.6 0.00 0.00 0.00 92 1014.9
20260502103355 13 28 4.8 8.0 0.00 0.00 0.00 93 1014.7
20260502102852 13 30 3.2 3.2 0.00 0.00 0.00 94 1014.8
20260502102349 13 6 0.0 1.6 0.00 0.00 0.00 95 1014.6
20260502101846 13 22 1.6 1.6 0.00 0.00 0.00 95 1014.5
20260502101345 13 35 3.2 4.8 0.00 0.00 0.00 95 1014.5
20260502100842 13 13 3.2 3.2 0.00 0.00 0.00 95 1014.5
20260502100342 13 27 4.8 4.8 0.00 0.00 0.00 95 1014.3
20260502091315 13 14 9.7 16.1 0.00 0.00 0.00 94 1013.5
20260502090813 13 359 4.8 8.0 0.00 0.00 0.00 94 1013.4
20260502090309 13 45 8.0 9.7 0.00 0.00 0.00 94 1013.4
20260502071205 13 12 9.7 12.9 0.00 0.00 0.00 98 1013.3
20260502070703 13 32 9.7 11.3 0.00 0.00 0.00 98 1013.4
20260502070200 13 37 6.4 9.7 0.00 0.00 0.00 98 1013.3
20260502065659 13 327 9.7 11.3 0.00 0.00 0.00 99 1013.2
20260502065156 13 11 4.8 9.7 0.00 0.00 0.00 99 1013.0
20260502064655 13 56 3.2 4.8 0.00 0.00 0.00 99 1013.1
20260502064151 13 45 6.4 9.7 0.00 0.00 0.00 99 1013.1
20260502063649 13 2 3.2 3.2 0.00 0.00 0.00 99 1013.2
20260502063147 13 56 1.6 3.2 0.00 0.00 0.00 99 1013.1
20260502062643 13 53 8.0 11.3 0.00 0.00 0.00 99 1013.1
20260502062141 13 5 4.8 8.0 0.00 0.00 0.00 99 1013.1
20260502061639 13 9 8.0 11.3 0.00 0.00 0.00 99 1013.2
20260502061137 13 355 4.8 4.8 0.00 0.00 0.00 99 1013.1
20260502060636 13 324 14.5 20.9 0.00 0.00 0.00 99 1013.0
20260502060133 13 15 8.0 20.9 0.00 0.00 0.00 99 1013.0
20260502055631 13 59 6.4 9.7 0.00 0.00 0.00 99 1012.9
20260502055129 13 5 8.0 11.3 0.00 0.00 0.00 99 1013.0
20260502054628 13 19 14.5 16.1 0.00 0.00 0.00 99 1013.0
20260502054125 13 329 8.0 16.1 0.00 0.00 0.00 99 1013.0
20260502053622 13 35 9.7 16.1 0.00 0.00 0.00 99 1013.1
20260502053119 13 39 9.7 11.3 0.00 0.00 0.00 99 1013.1
20260502052617 13 352 12.9 20.9 0.00 0.00 0.00 99 1013.1
20260502052115 13 65 11.3 14.5 0.00 0.00 0.00 99 1013.1
20260502051613 13 15 8.0 11.3 0.00 0.00 0.00 99 1013.2
20260502051111 13 37 6.4 8.0 0.00 0.00 0.00 99 1013.2
20260502050607 13 340 12.9 17.7 0.00 0.00 0.00 99 1013.0
20260502050104 13 23 12.9 16.1 0.00 0.00 0.00 99 1013.1
20260502045600 13 348 11.3 16.1 0.00 4.29 4.29 99 1013.1
20260502045058 13 13 17.7 22.5 0.00 4.29 4.29 99 1013.1
20260502044554 13 339 11.3 14.5 0.00 4.29 4.29 99 1013.1
20260502044051 13 4 16.1 22.5 0.00 4.29 4.29 99 1013.3
20260502043548 13 48 6.4 9.7 0.00 4.29 4.29 99 1013.1
20260502043044 13 359 11.3 12.9 0.00 4.29 4.29 99 1013.1
20260502042539 13 20 11.3 14.5 0.00 4.29 4.29 99 1013.0
20260502042037 13 26 4.8 4.8 0.00 4.29 4.29 99 1013.0
20260502041535 13 17 6.4 8.0 0.13 4.29 4.29 99 1013.2
20260502041031 13 11 9.7 11.3 0.13 4.29 4.29 99 1012.9
20260502040528 13 357 6.4 8.0 0.00 4.27 4.27 99 1012.9
20260502040025 14 81 4.8 8.0 0.00 4.27 4.27 99 1013.0
20260502035521 14 6 11.3 14.5 0.00 4.27 4.27 99 1012.8
20260502035019 14 21 6.4 9.7 0.00 4.27 4.27 99 1012.5
20260502034516 14 12 4.8 4.8 0.00 4.27 4.27 99 1012.4
20260502034015 14 31 11.3 14.5 0.00 4.27 4.27 99 1012.3
20260502033513 14 13 8.0 11.3 0.00 4.27 4.27 99 1012.0
20260502033010 14 12 6.4 9.7 0.00 4.27 4.27 99 1012.3
20260502032505 14 14 4.8 9.7 0.00 4.27 4.27 99 1011.9
20260502032003 14 39 9.7 11.3 0.00 4.27 4.27 99 1011.6
20260502031500 14 8 8.0 9.7 0.00 4.27 4.27 99 1011.5
20260502030958 14 298 3.2 4.8 0.00 4.27 4.27 99 1011.2
20260502030456 14 30 12.9 16.1 0.18 4.27 4.27 99 1011.1
20260502025954 14 49 1.6 3.2 0.30 4.27 4.27 99 1011.3
20260502025451 14 14 9.7 12.9 0.13 4.24 4.24 99 1011.4
20260502024949 15 19 3.2 4.8 0.00 4.22 4.22 99 1011.2
20260502024447 15 8 8.0 9.7 0.00 4.22 4.22 99 1011.2
20260502023945 15 66 1.6 3.2 0.00 4.22 4.22 99 1011.4
20260502023442 15 48 6.4 8.0 0.18 4.22 4.22 99 1011.6
20260502022939 15 14 11.3 12.9 0.18 4.22 4.22 99 1011.5
20260502022435 15 30 8.0 11.3 0.00 4.19 4.19 99 1011.3
20260502021932 15 5 12.9 16.1 0.00 4.19 4.19 99 1011.3
20260502021430 15 8 6.4 8.0 0.13 4.19 4.19 99 1011.2
20260502020927 15 22 4.8 4.8 0.13 4.19 4.19 99 1011.0
20260502020425 15 22 4.8 4.8 0.00 4.17 4.17 99 1011.0
20260502015921 15 11 3.2 4.8 0.00 4.17 4.17 99 1010.8
20260502015419 15 48 4.8 4.8 0.18 4.17 4.17 99 1011.0
20260502014915 15 37 6.4 8.0 0.36 4.17 4.17 99 1011.0
20260502014412 15 19 6.4 8.0 0.61 4.14 4.14 99 1010.7
20260502013909 15 19 8.0 11.3 1.32 4.11 4.11 99 1010.5
20260502013404 15 35 4.8 8.0 1.19 4.04 4.04 99 1010.3
20260502012901 15 20 12.9 12.9 0.43 3.91 3.91 99 1010.2
20260502012359 15 0 6.4 9.7 0.18 3.84 3.84 99 1010.2
20260502011856 15 16 3.2 3.2 0.18 3.84 3.84 99 1009.5
20260502011352 15 109 1.6 1.6 0.30 3.81 3.81 99 1008.8
20260502010849 15 86 1.6 3.2 0.89 3.81 3.81 99 1009.2
20260502010346 15 86 3.2 3.2 1.32 3.78 3.78 99 1009.1
20260502005843 15 84 8.0 11.3 1.37 3.68 3.68 99 1009.0
20260502005341 15 359 4.8 9.7 1.07 3.53 3.53 99 1009.2
20260502004838 15 19 9.7 11.3 0.89 3.43 3.43 99 1009.6
20260502004333 15 11 4.8 8.0 0.61 3.33 3.33 99 1009.6
20260502003832 15 297 11.3 12.9 0.48 3.28 3.28 99 1008.8
20260502003328 15 5 12.9 24.1 0.18 3.23 3.23 99 1008.4
20260502002825 15 344 11.3 16.1 0.13 3.20 3.20 99 1008.0
20260502002322 15 327 12.9 17.7 0.13 3.20 3.20 99 1008.1
20260502001819 15 358 6.4 9.7 0.18 3.17 3.17 99 1007.7
20260502001317 16 17 16.1 16.1 0.18 3.17 3.17 99 1007.4
20260502000814 16 24 8.0 12.9 0.00 3.15 3.15 99 1007.1
20260502000312 16 359 16.1 20.9 0.00 3.15 3.15 99 1007.6
20260501235808 16 29 11.3 14.5 0.00 3.15 3.15 99 1008.1
20260501235305 16 22 11.3 12.9 0.18 3.15 3.15 99 1008.0
20260501234759 16 68 8.0 12.9 0.30 3.15 3.15 99 1008.0
20260501234257 16 78 4.8 4.8 0.13 3.12 3.12 99 1007.6
20260501233755 16 74 0.0 1.6 0.13 3.12 3.12 99 1007.3
20260501233252 16 357 0.0 1.6 0.00 3.10 3.10 99 1007.3
20260501232748 16 20 6.4 11.3 0.00 3.10 3.10 99 1007.2
20260501232245 16 43 8.0 9.7 0.00 3.10 3.10 99 1007.1
20260501231743 16 186 3.2 3.2 0.18 3.10 3.10 99 1006.9
20260501231241 16 37 6.4 9.7 0.48 3.10 3.10 99 1007.0
20260501230739 16 315 4.8 12.9 0.61 3.07 3.07 99 1006.7
20260501230237 16 95 3.2 8.0 0.43 3.02 3.02 99 1007.0
20260501225734 16 67 8.0 11.3 0.30 2.97 2.97 99 1007.3
20260501225231 16 140 1.6 3.2 0.18 2.95 2.95 99 1007.5
20260501224727 16 19 3.2 8.0 0.00 2.92 2.92 99 1007.5
20260501224225 16 100 4.8 4.8 0.00 2.92 2.92 99 1007.5
20260501223721 16 50 3.2 4.8 0.00 2.92 2.92 99 1007.8
20260501223218 16 106 0.0 0.0 0.00 2.92 2.92 99 1008.3
20260501222714 16 30 6.4 11.3 0.00 2.92 2.92 99 1008.4
20260501222211 16 8 4.8 11.3 0.00 2.92 2.92 99 1008.6
20260501221708 16 17 9.7 12.9 0.00 2.92 2.92 99 1008.4
20260501221205 16 104 0.0 1.6 0.00 2.92 2.92 99 1008.3
20260501220703 16 29 8.0 11.3 0.00 2.92 2.92 99 1008.2
20260501220200 16 58 4.8 8.0 0.13 2.92 2.92 99 1008.1
20260501215657 16 81 1.6 4.8 0.48 2.92 2.92 99 1007.8
20260501215152 16 63 3.2 3.2 1.27 2.90 2.90 99 1007.4
20260501214647 16 5 6.4 9.7 1.32 2.84 2.84 99 1007.2
20260501214142 16 112 0.0 0.0 0.79 2.72 2.72 99 1007.2
20260501213640 17 118 3.2 4.8 0.79 2.62 2.62 99 1007.5
20260501213136 17 167 1.6 3.2 0.79 2.57 2.57 99 1008.2
20260501212633 16 48 3.2 3.2 0.61 2.49 2.49 99 1007.4
20260501212129 16 53 8.0 11.3 1.19 2.44 2.44 99 1008.3
20260501211626 16 204 1.6 1.6 1.19 2.36 2.36 99 1008.2
20260501211124 17 53 6.4 9.7 0.79 2.24 2.24 99 1007.4
20260501210620 17 98 3.2 3.2 1.07 2.16 2.16 99 1008.1
20260501210117 17 66 4.8 8.0 0.89 2.11 2.11 99 1007.4
20260501205613 17 7 1.6 1.6 0.48 2.01 2.01 99 1007.2
20260501205111 17 91 0.0 1.6 0.48 1.96 1.96 99 1007.5
20260501204607 17 181 4.8 4.8 0.61 1.93 1.93 99 1007.4
20260501204103 17 23 3.2 4.8 0.66 1.91 1.91 99 1006.8
20260501203600 17 155 1.6 3.2 0.71 1.85 1.85 99 1006.6
20260501203058 17 80 6.4 9.7 0.61 1.80 1.80 99 1007.2
20260501202554 17 38 9.7 12.9 0.18 1.73 1.73 99 1007.6
20260501202051 17 64 1.6 3.2 0.13 1.70 1.70 99 1007.6
20260501201548 17 168 4.8 8.0 0.43 1.70 1.70 99 1006.7
20260501201044 17 150 8.0 9.7 0.79 1.68 1.68 99 1006.4
20260501200542 17 101 6.4 11.3 0.48 1.63 1.63 99 1006.0
20260501200039 17 67 3.2 3.2 0.13 1.57 1.57 99 1006.6
20260501195536 17 15 4.8 8.0 0.00 1.55 1.55 99 1007.3
20260501195031 17 19 6.4 9.7 0.18 1.55 1.55 99 1007.3
20260501194527 17 31 4.8 8.0 0.18 1.55 1.55 99 1007.2
20260501194023 17 302 3.2 4.8 0.13 1.52 1.52 99 1007.0
20260501193521 17 150 0.0 1.6 0.43 1.52 1.52 99 1006.9
20260501193020 17 98 4.8 4.8 1.19 1.50 1.50 99 1006.5
20260501192516 17 184 1.6 4.8 1.07 1.45 1.45 99 1007.0
20260501192014 17 142 1.6 1.6 0.48 1.35 1.35 99 1007.1
20260501191510 17 47 4.8 11.3 0.30 1.27 1.27 99 1007.3
20260501191008 17 96 3.2 3.2 0.48 1.27 1.27 99 1007.6
20260501190503 18 95 1.6 1.6 0.18 1.22 1.22 99 1007.0
20260501185959 18 335 3.2 3.2 0.13 1.19 1.19 99 1007.3
20260501185455 18 315 1.6 4.8 0.30 1.19 1.19 99 1007.6
20260501184951 18 34 11.3 16.1 0.48 1.17 1.17 99 1007.3
20260501184448 18 110 4.8 4.8 0.30 1.14 1.14 99 1007.3
20260501183942 18 48 3.2 3.2 0.00 1.09 1.09 99 1007.5
20260501183440 18 47 8.0 16.1 0.00 1.09 1.09 99 1007.3
20260501182936 18 79 9.7 12.9 0.00 1.09 1.09 99 1007.2
20260501182433 18 59 1.6 1.6 0.00 1.09 1.09 99 1007.5
20260501181930 18 146 3.2 3.2 0.00 1.09 1.09 99 1007.2
20260501181427 18 133 6.4 11.3 0.00 1.09 1.09 99 1007.1
20260501180924 18 41 4.8 11.3 0.00 1.09 1.09 99 1007.0
20260501180421 17 48 3.2 3.2 0.00 1.09 1.09 99 1007.1
20260501175917 17 34 6.4 11.3 0.00 1.09 1.09 99 1007.2
20260501175414 17 355 3.2 3.2 0.00 1.09 1.09 99 1007.4
20260501174911 17 103 4.8 8.0 0.00 1.09 1.09 99 1008.0
20260501174409 17 13 1.6 3.2 0.13 1.09 1.09 99 1008.0
20260501173906 17 57 1.6 3.2 0.13 1.09 1.09 99 1008.0
20260501173404 17 61 3.2 3.2 0.00 1.07 1.07 99 1008.4
20260501172859 17 25 4.8 8.0 0.00 1.07 1.07 99 1008.3
20260501172354 17 63 3.2 4.8 0.00 1.07 1.07 99 1008.2
20260501171850 17 12 8.0 14.5 0.00 1.07 1.07 99 1008.3
20260501171347 17 15 11.3 14.5 0.48 1.07 1.07 99 1008.5
20260501170843 17 65 3.2 4.8 0.97 1.07 1.07 99 1008.3
20260501170341 17 349 11.3 14.5 0.48 0.99 0.99 99 1009.8
20260501165838 18 328 19.3 22.5 0.61 0.94 0.94 99 1010.6
20260501165336 18 314 4.8 4.8 1.02 0.91 0.91 99 1009.5
20260501164833 18 46 3.2 3.2 0.30 0.79 0.79 99 1008.1
20260501164331 18 10 3.2 4.8 0.18 0.74 0.74 99 1008.0
20260501163827 18 2 1.6 1.6 0.18 0.74 0.74 99 1007.9